CW4778 Weather Reports


time (UTC)temp
C
wind
direction
speed
KPH
gust
KPH
rain 1hr
cm
rain 24hr
cm
rain mn
cm
humidity
%
barometer
mb
20260506034804 18 51 12.9 20.9 0.00 0.00 0.00 86 1028.5
20260506034305 18 49 16.1 24.1 0.00 0.00 0.00 85 1028.5
20260506033804 18 50 16.1 22.5 0.00 0.00 0.00 85 1028.5
20260506031805 18 53 14.5 25.7 0.00 0.00 0.00 85 1028.5
20260506030805 19 54 19.3 25.7 0.00 0.00 0.00 84 1028.5
20260506030305 20 54 19.3 22.5 0.00 0.00 0.00 84 1028.5
20260506025805 19 54 20.9 27.4 0.00 0.00 0.00 84 1028.5
20260506024304 19 56 16.1 25.7 0.00 0.00 0.00 84 1028.6
20260506023804 19 56 20.9 33.8 0.00 0.00 0.00 84 1028.6
20260506023305 20 56 22.5 29.0 0.00 0.00 0.00 83 1028.6
20260506022306 19 56 16.1 24.1 0.00 0.00 0.00 83 1028.6
20260506021805 20 61 20.9 32.2 0.00 0.00 0.00 83 1028.6
20260506021305 20 61 20.9 32.2 0.00 0.00 0.00 83 1028.6
20260506020805 20 61 14.5 22.5 0.00 0.00 0.00 85 1028.6
20260506020305 20 64 20.9 27.4 0.00 0.00 0.00 84 1028.6
20260506014804 20 64 16.1 20.9 0.00 0.00 0.00 84 1028.8
20260506014305 20 64 19.3 25.7 0.00 0.00 0.00 85 1028.8
20260506013305 20 64 16.1 22.5 0.00 0.00 0.00 84 1028.8
20260506012805 20 64 16.1 24.1 0.00 0.00 0.00 84 1028.9
20260506012307 20 64 16.1 24.1 0.00 0.00 0.00 85 1028.9
20260506010805 20 65 20.9 27.4 0.00 0.00 0.00 84 1028.9
20260506010305 20 64 16.1 29.0 0.00 0.00 0.00 85 1029.0
20260506004805 20 64 17.7 25.7 0.00 0.00 0.00 85 1029.1
20260506004305 20 63 11.3 22.5 0.00 0.00 0.00 87 1029.1
20260506003805 20 61 14.5 22.5 0.00 0.00 0.00 87 1029.1
20260506002804 20 60 14.5 25.7 0.00 0.00 0.00 85 1029.3
20260506002306 20 61 14.5 22.5 0.00 0.00 0.00 85 1029.5
20260505234805 20 73 11.3 22.5 0.00 0.00 0.00 86 1029.9
20260505234304 20 72 9.7 14.5 0.00 0.00 0.00 85 1030.0
20260505233304 20 62 11.3 19.3 0.00 0.00 0.00 86 1030.0
20260505232805 21 61 12.9 22.5 0.00 0.00 0.00 84 1030.1
20260505232305 21 60 9.7 19.3 0.00 0.00 0.00 84 1030.1
20260505230304 21 75 9.7 19.3 0.00 0.00 0.00 83 1030.3
20260505224305 21 42 9.7 16.1 0.00 0.00 0.00 83 1030.5
20260505223804 21 68 9.7 14.5 0.00 0.00 0.00 84 1030.6
20260505222804 20 69 11.3 16.1 0.00 0.00 0.00 86 1030.6
20260505222306 20 73 9.7 16.1 0.00 0.00 0.00 87 1030.5
20260505221306 18 75 9.7 16.1 0.00 0.00 0.00 90 1030.8
20260505220805 18 62 9.7 14.5 0.00 0.00 0.00 90 1030.9
20260505212805 20 79 8.0 16.1 0.00 0.00 0.00 91 1031.0
20260505212306 18 89 8.0 12.9 0.00 0.00 0.00 90 1031.0
20260505211804 18 74 8.0 12.9 0.00 0.00 0.00 89 1031.0
20260505205305 19 82 8.0 11.3 0.00 0.00 0.00 88 1030.9
20260505204304 18 92 9.7 12.9 0.00 0.00 0.00 90 1030.9
20260505202805 17 53 3.2 8.0 0.00 0.00 0.00 96 1031.0
20260505201805 16 76 3.2 9.7 0.00 0.00 0.00 97 1030.7
20260505201305 15 70 6.4 11.3 0.00 0.00 0.00 97 1030.7
20260505195305 15 67 4.8 11.3 0.00 0.00 0.00 97 1030.5
20260505194804 15 65 3.2 8.0 0.00 0.00 0.00 98 1030.5
20260505194305 15 76 4.8 11.3 0.00 0.00 0.00 97 1030.5
20260505193805 15 92 1.6 4.8 0.00 0.00 0.00 97 1030.5
20260505193304 15 92 1.6 3.2 0.00 0.00 0.00 97 1030.5
20260505191304 15 93 3.2 4.8 0.00 0.00 0.00 97 1030.4
20260505190804 15 92 4.8 9.7 0.00 0.00 0.00 97 1030.3
20260505190305 15 86 6.4 11.3 0.00 0.00 0.00 97 1030.3
20260505185805 15 90 4.8 11.3 0.00 0.00 0.00 97 1030.3
20260505184805 15 79 3.2 11.3 0.00 0.00 0.00 97 1030.2
20260505183804 15 53 1.6 9.7 0.00 0.00 0.00 97 1030.2
20260505183304 15 59 0.0 3.2 0.00 0.00 0.00 97 1030.2
20260505182306 15 60 1.6 3.2 0.00 0.00 0.00 97 1030.1
20260505181304 15 61 4.8 9.7 0.00 0.00 0.00 97 1030.1
20260505180804 15 73 3.2 8.0 0.00 0.00 0.00 97 1030.1
20260505175804 15 77 3.2 4.8 0.00 0.00 0.00 97 1030.1
20260505175305 15 77 3.2 8.0 0.00 0.00 0.00 97 1030.1
20260505174805 15 79 3.2 8.0 0.00 0.00 0.00 96 1030.0
20260505173304 15 78 4.8 9.7 0.00 0.00 0.00 96 1030.1
20260505172306 15 73 3.2 8.0 0.00 0.00 0.00 96 1030.1
20260505170804 15 84 6.4 9.7 0.00 0.00 0.00 95 1030.2
20260505165804 15 101 8.0 11.3 0.00 0.00 0.00 95 1030.3
20260505165306 15 93 4.8 9.7 0.00 0.00 0.00 95 1030.3
20260505164805 15 95 8.0 12.9 0.00 0.00 0.00 95 1030.3
20260505163805 15 89 4.8 11.3 0.00 0.00 0.00 95 1030.3
20260505163304 15 87 3.2 4.8 0.00 0.00 0.00 95 1030.4
20260505162804 16 81 4.8 8.0 0.00 0.00 0.00 95 1030.4
20260505161304 16 80 4.8 12.9 0.00 0.00 0.00 95 1030.3
20260505160305 16 89 9.7 14.5 0.00 0.00 0.00 95 1030.2
20260505151804 15 89 8.0 12.9 0.00 0.00 0.00 95 1030.5
20260505150305 16 91 8.0 12.9 0.00 0.00 0.00 95 1030.7
20260505130305 16 92 3.2 4.8 0.00 0.00 0.00 93 1031.7
20260505124805 16 87 8.0 11.3 0.00 0.00 0.00 93 1031.8
20260505124304 16 94 9.7 14.5 0.00 0.00 0.00 93 1031.7
20260505123304 16 91 8.0 11.3 0.00 0.00 0.00 93 1031.8
20260505122306 16 86 4.8 9.7 0.00 0.00 0.00 93 1031.8
20260505121304 16 91 4.8 9.7 0.00 0.00 0.00 93 1031.8
20260505120840 16 90 6.4 11.3 0.00 0.00 0.00 93 1031.9
20260505115305 16 95 6.4 14.5 0.00 0.00 0.00 92 1031.9
20260505114805 16 92 4.8 14.5 0.00 0.00 0.00 92 1031.8
20260505113805 16 88 8.0 11.3 0.00 0.00 0.00 92 1031.8
20260505113304 16 107 9.7 11.3 0.00 0.00 0.00 92 1031.7
20260505111304 16 66 4.8 11.3 0.00 0.00 0.00 92 1031.9
20260505110304 16 101 6.4 12.9 0.00 0.00 0.00 92 1032.0
20260505101805 16 96 4.8 11.3 0.00 0.00 0.00 91 1032.3
20260505100305 16 71 4.8 12.9 0.00 0.00 0.00 91 1032.3
20260505095805 16 81 6.4 9.7 0.00 0.00 0.00 91 1032.4
20260505095305 16 100 4.8 9.7 0.00 0.00 0.00 91 1032.3
20260505093305 16 55 4.8 11.3 0.00 0.00 0.00 90 1032.3
20260505092805 16 80 6.4 12.9 0.00 0.00 0.00 90 1032.3
20260505092305 16 61 6.4 11.3 0.00 0.00 0.00 90 1032.3
20260505091805 16 87 4.8 9.7 0.00 0.00 0.00 91 1032.3
20260505085805 16 58 4.8 8.0 0.00 0.00 0.00 92 1032.2
20260505085305 15 52 6.4 9.7 0.00 0.00 0.00 92 1032.2
20260505084804 15 64 6.4 11.3 0.00 0.00 0.00 91 1032.2
20260505084305 15 87 4.8 11.3 0.00 0.00 0.00 92 1032.2
20260505083804 15 57 4.8 9.7 0.00 0.00 0.00 92 1032.2
20260505082805 15 75 4.8 8.0 0.00 0.00 0.00 92 1032.1
20260505081805 15 86 4.8 8.0 0.00 0.00 0.00 92 1032.1
20260505080805 15 75 1.6 8.0 0.00 0.00 0.00 91 1032.1
20260505080305 15 91 8.0 12.9 0.00 0.00 0.00 91 1032.1
20260505075805 15 84 4.8 8.0 0.00 0.00 0.00 91 1032.0
20260505074305 15 87 8.0 11.3 0.00 0.00 0.00 90 1032.1
20260505073805 15 93 3.2 14.5 0.00 0.00 0.00 90 1032.1
20260505073305 15 86 9.7 14.5 0.00 0.00 0.00 90 1032.0
20260505071804 16 91 4.8 12.9 0.00 0.00 0.00 89 1032.0
20260505070305 16 89 9.7 14.5 0.00 0.00 0.00 89 1031.8
20260505065804 16 91 9.7 19.3 0.00 0.00 0.00 89 1031.8
20260505065304 16 83 8.0 14.5 0.00 0.00 0.00 89 1031.8
20260505063804 16 93 14.5 20.9 0.00 0.00 0.00 89 1031.8
20260505060304 16 70 9.7 16.1 0.00 0.00 0.00 88 1031.9
20260505054804 16 72 9.7 16.1 0.00 0.00 0.00 87 1031.8
20260505054305 16 68 8.0 14.5 0.00 0.00 0.00 88 1031.8
20260505053304 16 71 8.0 19.3 0.00 0.00 0.00 88 1031.8
20260505052804 16 81 11.3 19.3 0.00 0.00 0.00 88 1031.8
20260505051804 16 75 9.7 12.9 0.00 0.00 0.00 88 1031.9
20260505051304 16 68 8.0 14.5 0.00 0.00 0.00 87 1032.0
20260505050805 16 75 9.7 16.1 0.00 0.00 0.00 87 1032.0
20260505050304 17 82 9.7 19.3 0.00 0.00 0.00 87 1032.0
20260505041305 17 78 14.5 27.4 0.00 0.00 0.00 87 1032.1
20260505040304 17 93 11.3 20.9 0.00 0.00 0.00 86 1032.1
20260505035304 17 83 12.9 27.4 0.00 0.00 0.00 86 1032.0